This is the latest recevied weather packets stored in our database for station/object KB3GVC-13. If no packets are shown the sender has not sent any weather packets the latest 10 day(s).
| Time | Temp. | Humidity | Pressure | Rain* | Wind** | Luminosity | Snow |
|---|---|---|---|---|---|---|---|
| 1777948506 | 17.22° C | 52% | 1012 hPa | 0 mm | - | - | - |
| 1777948204 | 17.78° C | 51% | 1012 hPa | 0 mm | - | - | - |
| 1777947901 | 17.78° C | 51% | 1012.1 hPa | 0 mm | - | - | - |
| 1777947598 | 17.78° C | 51% | 1012.1 hPa | 0 mm | - | - | - |
| 1777947294 | 17.78° C | 50% | 1012.4 hPa | 0 mm | - | - | - |
| 1777946990 | 17.78° C | 50% | 1011.7 hPa | 0 mm | - | - | - |
| 1777946685 | 17.78° C | 50% | 1011.8 hPa | 0 mm | - | - | - |
| 1777946383 | 18.33° C | 49% | 1012 hPa | 0 mm | - | - | - |
| 1777946080 | 18.33° C | 48% | 1011.9 hPa | 0 mm | - | - | - |
| 1777945777 | 17.78° C | 48% | 1011.8 hPa | 0 mm | - | - | - |
| 1777945474 | 18.33° C | 49% | 1011.8 hPa | 0 mm | - | - | - |
| 1777945171 | 18.33° C | 47% | 1011.6 hPa | 0 mm | - | - | - |
| 1777944868 | 18.33° C | 47% | 1011.6 hPa | 0 mm | - | - | - |
| 1777944565 | 18.33° C | 47% | 1011.7 hPa | 0 mm | - | - | - |
| 1777944263 | 18.89° C | 47% | 1011.5 hPa | 0 mm | - | - | - |
| 1777943959 | 18.33° C | 47% | 1011.7 hPa | 0 mm | - | - | - |
| 1777943656 | 18.89° C | 47% | 1011.7 hPa | 0 mm | - | - | - |
| 1777943353 | 18.89° C | 47% | 1011.5 hPa | 0 mm | - | - | - |
| 1777943049 | 18.89° C | 46% | 1011.5 hPa | 0 mm | - | - | - |
| 1777942744 | 18.89° C | 46% | 1011.3 hPa | 0 mm | - | - | - |
| 1777942441 | 19.44° C | 46% | 1011.3 hPa | 0 mm | - | - | - |
| 1777942139 | 19.44° C | 45% | 1011.3 hPa | 0 mm | - | - | - |
| 1777941835 | 19.44° C | 44% | 1011.2 hPa | 0 mm | - | - | - |
| 1777941533 | 20° C | 44% | 1011.1 hPa | 0 mm | - | - | - |
| 1777941230 | 20° C | 44% | 1011.2 hPa | 0 mm | - | - | - |
* Rain latest hour (hover to see other rain measurements)
** Current wind speed in m/s (hover to see current wind gust speed)